Location: Menands
(42.6920°N, 73.7246°W)
Time: 07:02:58
(UTC+00:00)

CARTOSAT-1 - Pass Details

Date: 18 February 2026
Orbit: 594 x 597 km, 97.5° (Epoch: 8 March)

Event Time Altitude Azimuth Distance (km) Brightness Sun altitude
Rises 23:00:05 0° 144° (SE) 2,826 6.7 -6.1°
Reaches altitude 10° 23:02:23 10° 134° (SE) 1,928 5.8 -6.5°
Maximum altitude 23:06:08 33° 70° (ENE) 1,004 4.1 -7.2°
Drops below altitude 10° 23:09:56 10° 6° (N) 1,940 6.0 -7.9°
Sets 23:12:15 0° 357° (N) 2,846 6.9 -8.3°
